Starlink 31565

operational
NORAD ID: 59323 Int'l Des: 2024-057 Owner: SPXS Country: US Constellation: starlink
LEOCIRCULAR

Starlink 31565について

説明を読み込み中...

リアルタイム位置

3D地球を読み込み中...

次回通過

高度履歴

Altitude vs Time

uPlot chart will show altitude changes over time

軌道要素

1 59323U 24057D 25352.89215297 .00001319 00000-0 57451-4 0 9990
2 59323 43.0022 291.0377 0001131 281.5545 78.5179 15.27576861 97393
Epoch: Dec 18, 2025 • Age: 8 hours

現在のステータス

高度 485.1 km
速度 7.63 km/s
衛星直下点 34.44°N, 113°W
打ち上げ日 Mar 25, 2024
運用期間 1.7 years
タイプ internet

技術仕様

分類 Payload
質量 730.00 kg
乾燥質量 700.00 kg
総質量 730.00 kg
長さ 0.30 m
直径 4.10 m
スパン 29.00 m
形状 Box + pan
製造者 SPXS
バスタイプ Starlink V2M
フェーズステータス In Orbit
所有者/国 SPXS/US

大規模コンステレーション

Loading constellations...